Calgary Springbank,

10:13 PM MDT on August 18, 2017 (GMT -0600)
Calgary Springbank

Weather History for CYBW - April, 2012

Change the Weather History Date:

Wednesday, April 11, 2012

  Actual Average Record
Temperature  
Mean Temperature 43 °F -  
Max Temperature 57 °F 50 °F 64 °F (2004)
Min Temperature 29 °F 27 °F 5 °F (1997)
Degree Days  
Heating Degree Days 22    
Moisture  
Dew Point 26 °F    
Average Humidity 46    
Maximum Humidity 70    
Minimum Humidity 22    
Precipitation  
Precipitation 0.00 in - - ()
Sea Level Pressure  
Sea Level Pressure 29.80 in    
Wind  
Wind Speed 6 mph ()    
Max Wind Speed 15 mph    
Max Gust Speed 21 mph    
Visibility 15.0 miles    
Events      
Averages and records for this station are not official NWS values.
T = Trace of Precipitation, MM = Missing Value Source: Averaged Metar Reports

Daily Weather History Graph

Daily Weather History Graph

Search for Another Location

Airport or City:

Trip Planner

Search our weather history database for the weather conditions in past years. The results will help you decide how hot, cold, wet, or windy it might be!

Date:

Astronomy

Apr. 11, 2012 Rise Set
Actual Time 6:49 AM MDT 8:27 PM MDT
Civil Twilight 6:15 AM MDT 9:02 PM MDT
Nautical Twilight 5:32 AM MDT 9:45 PM MDT
Astronomical Twilight 4:45 AM MDT 10:32 PM MDT
Moon 1:53 AM MDT (4/11) 10:15 AM MDT (4/11)
Length of Visible Light 14h 47m
Length of Day
13h 38m
Waning Gibbous, 68% of the Moon is Illuminated
Apr 11
Waning Gibbous
Apr 13
Last Quarter
Apr 21
New
Apr 29
First Quarter
May 5
Full

Hourly Weather History & Observations

Time (MDT) Temp. Windchill Dew Point Humidity Pressure Visibility Wind Dir Wind Speed Gust Speed Precip Events Conditions
5:00 AM 33.8 °F 30.8 °F 21.2 °F 60% 29.91 in 15.0 mi SSE 3.5 mph - N/A   Mostly Cloudy
6:00 AM 33 °F - 22 °F 54% 29.91 in 15 mi SE 2.3 mph - -   Clear
6:00 AM 33.8 °F - 23.0 °F 65% 29.91 in 15.0 mi SE 2.3 mph - N/A   Mostly Cloudy
7:00 AM 32.0 °F 27.5 °F 23.0 °F 69% 29.91 in 30.0 mi SSE 4.6 mph - N/A   Mostly Cloudy
8:00 AM 32.0 °F 26.4 °F 23.0 °F 69% 29.90 in 30.0 mi South 5.8 mph - N/A   Overcast
9:00 AM 33.8 °F - 24.8 °F 70% 29.90 in 30.0 mi Calm Calm - N/A   Overcast
10:00 AM 37.4 °F - 26.6 °F 65% 29.89 in 30.0 mi NNW 2.3 mph - N/A   Overcast
11:00 AM 44.6 °F 41.4 °F 26.6 °F 49% 29.86 in 30.0 mi South 5.8 mph - N/A   Overcast
12:00 PM 51 °F - 27 °F 26% 29.81 in 15 mi SE 11.5 mph - -   Scattered Clouds
12:00 PM 51.8 °F - 26.6 °F 38% 29.81 in 30.0 mi SSE 10.4 mph - N/A   Mostly Cloudy
1:00 PM 51.8 °F - 26.6 °F 38% 29.81 in 30.0 mi SE 13.8 mph - N/A   Overcast
2:00 PM 51.8 °F - 26.6 °F 38% 29.78 in 30.0 mi SE 11.5 mph - N/A   Overcast
3:00 PM 55.4 °F - 28.4 °F 36% 29.74 in 30.0 mi SSE 10.4 mph - N/A   Overcast
4:00 PM 55.4 °F - 26.6 °F 33% 29.72 in 30.0 mi SE 15.0 mph 20.7 mph N/A   Mostly Cloudy
5:00 PM 55.4 °F - 26.6 °F 33% 29.71 in 30.0 mi SE 12.7 mph 18.4 mph N/A   Mostly Cloudy
6:00 PM 55 °F - 27 °F 22% 29.70 in 28 mi SSE 10.4 mph - -   Clear
6:00 PM 55.4 °F - 26.6 °F 33% 29.70 in 25.0 mi SSE 10.4 mph - N/A   Mostly Cloudy
7:00 PM 53.6 °F - 26.6 °F 35% 29.70 in 25.0 mi SSE 11.5 mph - N/A   Mostly Cloudy
8:00 PM 50.0 °F - 26.6 °F 40% 29.69 in 25.0 mi SSE 5.8 mph - N/A   Mostly Cloudy
10:00 PM 42.8 °F - 24.8 °F 49% 29.61 in 15.0 mi South 2.3 mph - N/A   Scattered Clouds